Regional Weather Roundup
Issued by NWS

Home | Current Version | Previous Version | Text Only | Print | Product List | Glossary On
Versions: 1 2 3 4 5 6 7 8 9 10 11 12 13 14 15 16 17 18 19 20 21 22 23 24 25 26 27 28 29 30 31 32 33 34 35 36 37 38 39 40 41 42 43 44 45 46 47 48 49 50
000
ASUS43 KFSD 230410
RWRSD

WEATHER ROUNDUP FOR SOUTH DAKOTA
NATIONAL WEATHER SERVICE SIOUX FALLS SD
1100 PM CDT SUN OCT 22 2017

NOTE: "FAIR" INDICATES FEW OR NO CLOUDS BELOW 12,000 FEET WITH NO
SIGNIFICANT WEATHER AND/OR OBSTRUCTIONS TO VISIBILITY.


SDZ001>005-009-010-012>017-230500-
NORTHWEST AND NORTH CENTRAL SOUTH DAKOTA

CITY           SKY/WX    TMP DP  RH WIND       PRES   REMARKS
BUFFALO          N/A     48  42  80 W15       29.85R
MOBRIDGE       CLOUDY    54  49  83 W8        29.79R
$$

SDZ012>016-024>037-041>051-057-063-072>074-230500-
SOUTHWEST AND SOUTH CENTRAL SOUTH DAKOTA

CITY           SKY/WX    TMP DP  RH WIND       PRES   REMARKS
RAPID CTY ARPT CLOUDY    60  35  39 NW33G48   29.95R
PIERRE         PTCLDY    51  40  65 N8        29.81R
CUSTER         CLOUDY    52  27  38 NW8       30.03R
ELLSWORTH AFB  CLOUDY    60  33  36 NW38G61   29.95R
PHILIP         MOCLDY    59  39  47 NW20G28   29.88R
PINE RIDGE     CLOUDY    57  31  37 CALM      29.93R
SPEARFISH      CLOUDY    55  30  38 W24       30.00S
WINNER         FAIR      56  34  43 SW13      29.83S
$$

SDZ004>011-016>023-039-040-230500-
NORTHEAST SOUTH DAKOTA

CITY           SKY/WX    TMP DP  RH WIND       PRES   REMARKS
ABERDEEN       PTCLDY    57  36  45 SW10      29.77R
WATERTOWN      CLOUDY    53  37  54 S7        29.78F
BROOKINGS      CLOUDY    53  33  46 S12       29.82F
SISSETON         N/A     59  34  39 SW14      29.73F
$$

SDZ017-020-022-023-036>040-048>070-230500-
SOUTHEAST SOUTH DAKOTA

CITY           SKY/WX    TMP DP  RH WIND       PRES   REMARKS
SIOUX FALLS    CLOUDY    57  33  40 S12       29.85F
HURON          CLOUDY    55  34  45 S12       29.78F
CHAMBERLAIN    PTCLDY    52  35  51 S3        29.81F
MITCHELL       CLOUDY    55  34  45 S9        29.82F
YANKTON        CLEAR     57  32  38 S12       29.86F
$$

ABBREVIATIONS USED IN REMARKS
   TC - TEMPERATURE IN CELSIUS
  WCI - WIND CHILL INDEX
   HX - HEAT INDEX
  VSB - VISIBILITY





USA.gov is the U.S. government's official web portal to all federal, state and local government web resources and services.